Location: Navarre
(52.9016°N, 113.4144°W)
Time: 08:04:36
(UTC+00:00)

Envisat - Pass Details

Date: 07 December 2021
Orbit: 764 x 766 km, 98.2° (Epoch: 17 January)

Event Time Altitude Azimuth Distance (km) Brightness Sun altitude
Rises 23:56:34 0° 179° (S) 3,222 6.7 -5.6°
Reaches altitude 10° 23:58:56 10° 184° (S) 2,300 6.0 -5.9°
Maximum altitude 00:03:52 51° 260° (W) 958 4.0 -6.5°
Drops below altitude 10° 00:08:51 10° 337° (NNW) 2,317 5.4 -7.2°
Sets 00:11:14 0° 343° (NNW) 3,248 6.1 -7.5°
